User: anonymous   Login
Location: Lake Runnemede Observatory
(43.4843°N, 72.3851°W)
Time: 04:30:40
(UTC-04:00)
Language:

SPOT 5 - Orbit

View from above orbital plane
View from above orbital plane
View from above satellite
View from above satellite

Ground track
Ground track

The orbit data is extracted from the following two-line orbital elements,

1 27421U 02021A   17266.83412633  .00000055  00000-0  23687-4 0  9993
2 27421  98.3965 330.1844 0136089  27.0660 333.7539 14.51885172799986
Epoch (UTC): 23 September 2017 20:01:08
Eccentricity: 0.0136089
inclination: 98.3965°
perigee height: 623 km
apogee height: 816 km
right ascension of ascending node: 330.1844°
argument of perigee: 27.0660°
revolutions per day: 14.51885172
mean anomaly at epoch: 333.7539°
orbit number at epoch: 79998

The dashed part of the orbit path shows where the satellite is in the earth's shadow,  

DLR